EST,Max TemperatureF,Mean TemperatureF,Min TemperatureF,Max Dew PointF,MeanDew PointF,Min DewpointF,Max Humidity, Mean Humidity, Min Humidity, Max Sea Level PressureIn, Mean Sea Level PressureIn, Min Sea Level PressureIn, Max VisibilityMiles, Mean VisibilityMiles, Min VisibilityMiles, Max Wind SpeedMPH, Mean Wind SpeedMPH, Max Gust SpeedMPH,PrecipitationIn, CloudCover, Events, WindDirDegrees
2013-1-1,41,36,32,32,29,19,81,69,60,30.02,29.93,29.87,10,10,10,12,6,17,0.00,5,,278
2013-1-2,33,30,26,19,18,18,74,61,52,30.20,30.08,29.98,10,10,10,13,3,22,0.00,0,,305
2013-1-3,33,28,24,23,19,16,75,64,48,30.21,30.15,30.09,10,10,10,9,3,17,0.00,0,,269
2013-1-4,37,34,30,23,23,21,69,62,56,30.12,30.06,30.00,10,10,10,14,7,23,0.00,4,,257
2013-1-5,41,36,30,28,23,21,93,65,49,30.32,30.22,30.06,10,10,7,13,5,18,0.00,0,,278
2013-1-6,48,40,32,34,30,27,100,72,46,30.22,30.08,29.99,10,8,2,10,2,,0.01,5,,247
2013-1-7,46,38,30,32,30,27,93,70,46,30.40,30.30,30.08,10,10,7,10,4,17,0.00,2,,287
2013-1-8,50,38,26,32,30,25,100,81,50,30.41,30.38,30.35,10,8,4,12,2,16,0.00,0,,230
2013-1-9,50,39,28,37,34,28,100,80,61,30.39,30.29,30.16,10,8,2,10,2,,0.00,3,,235
2013-1-10,50,42,33,32,29,28,87,61,43,30.53,30.47,30.30,10,10,10,10,5,22,0.00,0,,299
2013-1-11,46,39,32,45,36,28,100,86,66,30.51,30.32,30.07,10,8,0,8,2,,0.26,5,,86
2013-1-12,51,45,39,46,43,37,100,95,82,30.16,30.13,30.08,10,2,0,5,1,,0.00,7,,312
2013-1-13,50,47,44,50,46,43,100,96,93,30.14,30.07,29.98,1,0,0,7,2,,0.01,8,,160
2013-1-14,53,47,41,52,45,32,100,82,50,30.29,30.12,29.92,10,6,0,8,2,,0.08,8,,310
2013-1-15,41,38,35,37,32,28,93,80,70,30.34,30.27,30.19,10,9,5,9,3,,0.15,7,,27
2013-1-16,37,35,33,36,34,32,100,95,93,30.13,29.98,29.83,7,4,2,9,4,,0.50,8,,282
2013-1-17,42,40,37,36,32,30,93,75,61,30.09,30.03,29.94,10,9,4,9,3,16,0.00,1,,300
2013-1-18,37,32,28,32,18,10,87,57,41,30.48,30.33,30.00,10,10,4,13,4,29,0.00,2,,308
2013-1-19,51,40,30,32,27,18,81,61,41,30.40,30.17,29.93,10,10,10,14,8,21,0.00,0,,203
2013-1-20,55,44,32,32,24,12,75,49,26,30.05,29.87,29.75,10,10,10,22,9,31,0.00,0,,264
2013-1-21,33,28,23,28,15,10,93,56,44,30.10,29.98,29.86,10,10,1,15,4,23,0.01,1,,266
2013-1-22,26,20,14,12,0,-4,59,42,31,30.24,30.08,29.88,10,10,10,17,11,31,0.00,0,,291
2013-1-23,23,18,12,10,3,0,86,57,39,30.28,30.22,30.16,10,10,10,14,5,21,0.00,1,,272
2013-1-24,28,21,14,12,5,-2,86,52,29,30.44,30.27,30.11,10,10,10,15,3,23,0.00,0,,318
2013-1-25,26,17,8,18,7,0,93,64,37,30.45,30.28,30.07,10,8,0,8,4,,0.01,2,,265
2013-1-26,30,19,8,18,12,5,93,71,47,30.39,30.19,30.05,10,10,5,13,3,17,0.00,2,,302
2013-1-27,33,22,10,21,15,9,92,72,48,30.56,30.48,30.40,10,10,10,9,2,16,0.00,0,,297
2013-1-28,37,30,24,36,29,21,100,90,75,30.49,30.26,30.02,10,5,1,10,2,,0.01,6,,208
2013-1-29,53,43,33,45,41,32,100,90,72,30.14,30.07,30.01,7,3,0,7,2,,0.00,6,,117
2013-1-30,68,52,37,59,50,37,100,91,73,30.02,29.75,29.33,10,5,0,17,5,28,0.30,7,,173
2013-1-31,62,46,30,59,30,12,94,59,39,29.84,29.50,29.09,10,9,2,23,14,37,0.79,5,,257